* Astronomy

Members Login
Username 
 
Password 
    Remember Me  
Post Info TOPIC: Asteroid 2012 UT169


L

Posts: 131433
Date:
Asteroid 2012 UT169
Permalink  
 


Orbital elements:
2012 UT169                                               Earth MOID = 0.1815 AU
Epoch 2012 Sept. 30.0 TT = JDT 2456200.5                MPC
M  23.48815              (2000.0)            P               Q
n   0.30323854     Peri.  346.26977     +0.79018934     +0.61120119
a   2.1942181      Node   335.87809     -0.55135818     +0.67683149
e   0.4568259      Incl.    6.33565     -0.26759105     +0.41028312
P   3.25           H   20.5           G   0.15           U   8

MPEC 2012 - U112



__________________
Page 1 of 1  sorted by
 
Quick Reply

Please log in to post quick replies.



Create your own FREE Forum
Report Abuse
Powered by ActiveBoard